Location: Johnson City
(36.3130°N, 82.3540°W)
Time: 05:54:54
(UTC-05:00)

N. Korean satellite - Pass Details

Date: 06 December 2021
Orbit: 447 x 490 km, 97.3° (Epoch: 26 January)

Event Time Altitude Azimuth Distance (km) Brightness Sun altitude
Rises 06:45:13 0° 346° (NNW) 2,453 9.8 -8.5°
Reaches altitude 10° 06:48:27 10° 311° (NW) 1,575 8.6 -7.9°
Maximum altitude 06:49:34 11° 292° (WNW) 1,491 8.3 -7.6°
Drops below altitude 10° 06:50:42 10° 272° (W) 1,572 8.6 -7.4°
Sets 06:53:56 0° 237° (WSW) 2,441 9.8 -6.8°
